[Date Prev][Date Next][Thread Prev][Thread Next] - [Date Index][Thread Index][Author Index]

2 Line ISS Keps 7-25



ISS
1 25544U 98067A   04207.36284722  .00023708  00000-0  19628-3 0  2966
2 25544  51.6318 130.9695 0006006  47.7789  87.8770 15.70110314324316
----
Via the sarex mailing list at AMSAT.ORG courtesy of AMSAT-NA.
To unsubscribe, send "unsubscribe sarex" to Majordomo@amsat.org



AMSAT Top AMSAT Home